Hourly Data Report for October 05, 2017

All times are specified in Local Standard Time (LST). Add 1 hour to adjust for Daylight Saving Time where and when it is observed.

LILLOOET
BRITISH COLUMBIA

50°41'01.420" N
121°56'02.945" W
239.50 m
1114619
71999
WKF

Download Data

Hourly Data (October 2017)
Hourly Data Report for October 5, 2017
Temp Definition
°C
Dew Point Temp Definition
°C
Rel Hum Definition
%
Wind Dir Definition
10's deg

Wind Spd Definition
km/h
Visibility Definition
km
Stn Press Definition
kPa
Hmdx Definition


Wind Chill Definition


Weather Definition


TIME
00:00 4.2 0.0 74 LegendMM LegendMM   99.43     LegendNANA
01:00 3.4 -1.0 73 LegendMM LegendMM   99.46     LegendNANA
02:00 3.1 -0.9 75 LegendMM LegendMM   99.48     LegendNANA
03:00 2.5 -1.0 78 LegendMM LegendMM   99.49     LegendNANA
04:00 2.0 -1.3 79 LegendMM LegendMM   99.51     LegendNANA
05:00 1.7 -1.0 83 LegendMM LegendMM   99.54     LegendNANA
06:00 1.5 -1.0 83 LegendMM LegendMM   99.57     LegendNANA
07:00 1.3 -1.0 85 LegendMM LegendMM   99.61     LegendNANA
08:00 4.1 0.6 78 LegendMM LegendMM   99.61     LegendNANA
09:00 7.2 0.1 60 LegendMM LegendMM   99.54     LegendNANA
10:00 10.8 -1.7 42 LegendMM LegendMM   99.46     LegendNANA
11:00 13.7 -2.0 34 LegendMM LegendMM   99.34     LegendNANA
12:00 15.6 -1.6 31 LegendMM LegendMM   99.22     LegendNANA
13:00 16.5 -1.3 30 LegendMM LegendMM   99.10     LegendNANA
14:00 18.0 -1.2 27 LegendMM LegendMM   98.97     LegendNANA
15:00 18.3 -1.1 27 LegendMM LegendMM   98.86     LegendNANA
16:00 19.0 -0.5 27 LegendMM LegendMM   98.78     LegendNANA
17:00 13.5 1.1 43 LegendMM LegendMM   98.72     LegendNANA
18:00 12.0 1.9 50 LegendMM LegendMM   98.71     LegendNANA
19:00 10.4 1.4 54 LegendMM LegendMM   98.73     LegendNANA
20:00 9.7 1.2 55 LegendMM LegendMM   98.74     LegendNANA
21:00 8.1 1.7 64 LegendMM LegendMM   98.73     LegendNANA
22:00 7.4 1.7 67 LegendMM LegendMM   98.73     LegendNANA
23:00 6.3 1.7 73 LegendMM LegendMM   98.75     LegendNANA

Notes on Data Quality.

Legend

  • E = Estimated
  • M = Missing
  • NA = Not Available
  • ‡ = Partner data that is not subject to review by the National Climate Archives
Date modified: